Location: Pasarilla del Rebollar
(40.6790°N, 5.0062°W)
Time: 10:10:29
(UTC+00:00)

Cosmos 1238 Rocket - Pass Details

Date: 22 April 2026
Orbit: 352 x 700 km, 82.9° (Epoch: 20 May)

Event Time Altitude Azimuth Distance (km) Brightness Sun altitude
Exits shadow 03:51:32 23° 317° (NW) 823 3.6 -17.8°
Drops below altitude 10° 03:53:12 10° 345° (NNW) 1,372 5.1 -17.6°
Sets 03:55:24 0° 357° (N) 2,264 6.4 -17.2°
